Location: Turtle Rock Observatory
(36.6913°N, 81.9708°W)
Time: 06:53:05
(UTC-05:00)

Daily predictions for brighter satellites

Satellite Brightness Start Highest point End
(mag) Time Altitude Azimuth Time Altitude Azimuth Time Altitude Azimuth
CZ-3B DEB 2.3 17:32:23 10° WSW 17:35:27 51° NW 17:42:50 10° NE
USA 32 4.1 17:33:50 10° S 17:39:03 88° E 17:44:18 10° N
COSMOS 2487 3.7 17:37:08 10° NNE 17:40:01 22° ENE 17:42:54 10° ESE
Cosmos 1833 Rocket 3.8 17:37:19 10° N 17:41:33 21° NE 17:45:45 10° ESE
CZ-3A R/B 4.0 17:39:12 10° W 17:43:45 40° NNW 18:03:35 10° NE
Cosmos 2082 Rocket 3.1 17:41:50 10° N 17:46:37 27° ENE 17:51:23 10° ESE
Abrixas 4.3 17:45:06 10° NNW 17:47:05 16° NNE 17:49:02 10° ENE
USA 116 4.4 17:45:41 10° NNE 17:51:04 86° ESE 17:56:04 10° SSW
Cosmos 1544 Rocket 3.8 17:47:19 10° N 17:51:47 76° W 17:56:14 10° S
OTV 4 4.0 17:52:04 10° SW 17:52:28 10° SSW 17:52:52 10° SSW
Cosmos 1743 4.1 17:51:10 10° NNE 17:54:00 19° ENE 17:56:47 10° ESE
Cosmos 1500 3.5 17:52:43 10° N 17:56:24 43° E 18:00:05 10° SSE
COSMO-SKYMED 1 3.4 17:53:21 10° NE 17:57:11 30° E 18:01:00 10° SSE
IDEFIX/ARIANE 42P 2.5 17:54:05 10° SSE 17:59:16 78° ENE 18:04:28 10° N
Cosmos 1484 Rocket 3.5 17:58:35 10° SE 18:01:49 28° ENE 18:05:02 10° NNE
Cosmos 1975 2.7 17:59:44 10° N 18:03:47 73° E 18:07:48 10° SSE
CZ-4 R/B 1.9 18:00:21 10° S 18:04:29 65° W 18:08:36 10° NNW
MSX 3.8 18:00:03 10° SSE 18:05:41 60° ENE 18:11:20 10° N
NOSS 2-1 (D) 3.4 18:02:34 10° SSW 18:06:17 54° ESE 18:09:43 13° NE
NOSS 2-1 (C) 3.5 18:03:14 10° SSW 18:06:58 53° ESE 18:10:22 14° NE
ASTRO F (AKARI) 4.2 18:04:27 10° NNE 18:07:35 67° ESE 18:10:44 10° S
Thor Agena Rocket 3.9 18:03:51 10° N 18:09:04 70° WNW 18:14:16 10° SSW
MOS 1 4.5 18:04:40 10° S 18:10:20 79° WSW 18:16:00 10° NNW
Cosmos 1536 Rocket 4.2 18:06:09 10° SSW 18:10:33 61° W 18:15:00 10° N
Cosmos 1025 Rocket 4.0 18:07:06 10° SSE 18:10:45 26° E 18:13:51 13° NE
Cosmos 921 Rocket 3.0 18:07:33 10° S 18:11:42 56° ESE 18:15:56 10° NNE
Meteor 1-13 Rocket 4.3 18:07:24 10° S 18:12:57 59° E 18:18:40 10° NNE
SMAP 3.4 18:10:06 10° S 18:14:43 71° WSW 18:19:22 10° NNW
YAOGAN 1 3.0 18:15:09 10° S 18:19:26 66° W 18:23:45 10° NNW
Nadezhda 3 Rocket 3.9 18:14:34 10° S 18:20:44 74° E 18:27:00 10° N
SL-24 DEB 4.2 18:16:18 10° N 18:21:04 90° WSW 18:25:43 10° S
Meteor 2-4 Rocket 4.0 18:19:07 10° SSE 18:24:05 40° E 18:29:03 10° NNE
Cosmos 2369 Rocket 4.1 18:22:21 10° ESE 18:22:49 11° ESE 18:22:49 11° ESE
Meteor 2-21 Rocket 4.4 18:18:11 10° N 18:24:20 64° E 18:30:24 10° SSE
NOSS 2-1 (E) 3.2 18:21:46 10° SSW 18:25:35 82° ESE 18:28:29 19° NE
SKYMED 3 4.5 18:22:59 10° NNE 18:27:19 69° E 18:31:38 10° S
GRACE-2 3.7 18:26:11 10° S 18:28:57 74° E 18:31:03 16° N
GRACE-1 3.7 18:26:37 10° S 18:29:23 77° E 18:31:33 15° N
USA 234 4.3 18:37:48 12° NNE 18:43:16 39° NNW 18:49:12 10° W
SKYMED 2 3.7 18:40:59 10° N 18:45:19 73° WNW 18:49:39 10° SSW
Tiangong 1 2.3 18:44:22 10° WNW 18:47:00 28° NNW 18:47:00 28° NNW
Delta 2 Rocket 3.1 18:44:42 10° W 18:48:26 77° S 18:49:28 48° ESE
NOAA 12 4.1 18:44:23 10° SSE 18:49:29 52° ENE 18:54:35 10° N
Cosmos 2056 Rocket 3.4 18:50:08 10° S 18:55:29 73° ESE 18:58:18 28° NNE
FALCON 9 R/B 3.6 18:29:35 10° WSW 18:56:03 79° S 19:00:04 32° E
Okean 1-7 Rocket 4.4 18:52:37 10° SSW 18:57:01 52° W 19:01:24 10° N
Cosmos 1892 Rocket 3.6 18:54:36 10° S 18:58:33 51° ESE 18:58:33 51° ESE
NOSS 3-4 (A) 3.9 18:52:58 10° NNW 18:59:51 52° NE 19:03:39 28° ESE
NOSS 3-4 (C) 3.9 18:53:05 10° NNW 18:59:57 51° NE 19:03:38 29° ESE
Cosmos 1624 Rocket 4.0 19:03:32 10° SSW 19:08:43 77° WNW 19:11:26 29° N
METEOR-M 4.0 19:03:34 10° SSE 19:08:50 68° ENE 19:14:09 10° N
Cosmos 1666 3.6 19:12:13 39° S 19:12:13 39° S 19:14:44 10° S
Cosmos 1934 Rocket 3.9 19:05:54 10° N 19:12:08 85° E 19:18:27 10° S
Meteor 2-8 Rocket 4.4 19:13:02 10° S 19:19:05 82° W 19:24:52 12° N
GEOS 3 Rocket 3.6 19:23:58 64° NNE 19:23:58 64° NNE 19:28:33 10° NNW
Cosmos 1833 Rocket 3.5 19:20:19 10° NNW 19:25:46 51° WSW 19:31:10 10° S
Okean 2 3.9 19:23:05 10° SSW 19:26:53 58° WSW 19:26:53 58° WSW
Cosmos 1606 Rocket 3.9 19:24:00 10° NNW 19:28:27 64° W 19:32:51 10° S
Cosmos 2082 Rocket 3.5 19:25:32 10° NW 19:30:45 38° WSW 19:35:58 10° S
Cosmos 1452 Rocket 4.5 19:39:21 10° SSW 19:42:32 38° SSW 19:42:32 38° SSW
Cosmos 1605 Rocket 4.3 19:47:30 10° NNW 19:53:43 64° W 19:59:47 10° S
Cosmos 2369 Rocket 3.6 20:01:49 10° SSW 20:04:41 31° SSW 20:04:41 31° SSW
ATLAS 3B CENTAUR R/B 4.2 20:35:49 10° W 20:46:08 33° SW 20:46:08 33° SW
